Shreveport, LA

6:42 PM CST on February 23, 2017 (GMT -0600)
Shreveport Regional

Weather History for KSHV - January, 2013

Change the Weather History Date:

Monday, January 28, 2013

  Actual Average Record
Temperature  
Mean Temperature 73 °F 48 °F  
Max Temperature 79 °F 58 °F 81 °F (1975)
Min Temperature 66 °F 37 °F 15 °F (1963)
Degree Days  
Heating Degree Days 0 18  
Month to date heating degree days 447 521  
Since 1 July heating degree days 1200 1423  
Cooling Degree Days 8 0  
Month to date cooling degree days 8 0  
Year to date cooling degree days 8 0  
Growing Degree Days 22 (Base 50)    
Moisture  
Dew Point 62 °F    
Average Humidity 72    
Maximum Humidity 87    
Minimum Humidity 56    
Precipitation  
Precipitation T in 0.16 in 4.34 in (1999)
Month to date precipitation 4.48 3.74  
Year to date precipitation 4.48 3.74  
Snow  
Snow 0.00 in - - ()
Month to date snowfall 0.1  
Since 1 July snowfall 0.1  
Snow Depth 0.00 in    
Sea Level Pressure  
Sea Level Pressure 30.05 in    
Wind  
Wind Speed 14 mph (South)    
Max Wind Speed 23 mph    
Max Gust Speed 30 mph    
Visibility 10 miles    
Events      
T = Trace of Precipitation, MM = Missing Value Source: NWS Daily Summary

Daily Weather History Graph

Daily Weather History Graph

Search for Another Location

Airport or City:

Trip Planner

Search our weather history database for the weather conditions in past years. The results will help you decide how hot, cold, wet, or windy it might be!

Date:

Astronomy

Jan. 28, 2013 Rise Set
Actual Time 7:11 AM CST 5:45 PM CST
Civil Twilight 6:46 AM CST 6:11 PM CST
Nautical Twilight 6:16 AM CST 6:40 PM CST
Astronomical Twilight 5:47 AM CST 7:09 PM CST
Moon 7:30 PM CST (1/28) 7:46 AM CST (1/28)
Length of Visible Light 11h 25m
Length of Day
10h 33m
Full, 98% of the Moon is Illuminated
Jan 28
Full
Feb 3
Last Quarter
Feb 10
New
Feb 17
First Quarter
Feb 25
Full

Hourly Weather History & Observations

Time (CST) Temp. Dew Point Humidity Pressure Visibility Wind Dir Wind Speed Gust Speed Precip Events Conditions
12:56 AM 66.9 °F 61.0 °F 81% 30.08 in 10.0 mi South 10.4 mph - N/A   Overcast
1:56 AM 66.9 °F 62.1 °F 84% 30.09 in 10.0 mi South 11.5 mph - 0.00 in   Overcast
2:15 AM 66.2 °F 62.6 °F 88% 30.10 in 10.0 mi South 15.0 mph - N/A   Overcast
2:56 AM 66.9 °F 62.1 °F 84% 30.09 in 10.0 mi South 10.4 mph - N/A   Overcast
3:56 AM 66.2 °F 62.6 °F 88% 30.10 in 10.0 mi South 9.2 mph - N/A   Overcast
4:17 AM 66.2 °F 62.6 °F 88% 30.10 in 10.0 mi South 5.8 mph - N/A   Overcast
4:56 AM 66.0 °F 62.1 °F 87% 30.09 in 10.0 mi South 8.1 mph - N/A   Overcast
5:35 AM 66.2 °F 62.6 °F 88% 30.09 in 10.0 mi South 8.1 mph - N/A   Overcast
5:56 AM 66.0 °F 62.1 °F 87% 30.09 in 10.0 mi SSE 9.2 mph - N/A   Overcast
6:56 AM 66.0 °F 62.1 °F 87% 30.10 in 10.0 mi SSE 10.4 mph - N/A   Overcast
7:56 AM 66.9 °F 63.0 °F 87% 30.11 in 10.0 mi SSE 11.5 mph - N/A   Overcast
8:32 AM 68.0 °F 62.6 °F 83% 30.11 in 10.0 mi South 12.7 mph - N/A   Overcast
8:45 AM 68.0 °F 62.6 °F 83% 30.11 in 10.0 mi South 11.5 mph - N/A   Mostly Cloudy
8:56 AM 68.0 °F 63.0 °F 84% 30.11 in 10.0 mi South 12.7 mph - N/A   Mostly Cloudy
9:29 AM 69.8 °F 62.6 °F 78% 30.12 in 10.0 mi South 12.7 mph - N/A   Overcast
9:56 AM 70.0 °F 64.0 °F 81% 30.12 in 10.0 mi South 11.5 mph - N/A   Overcast
10:56 AM 73.4 °F 62.6 °F 69% 30.11 in 10.0 mi South 21.9 mph 27.6 mph N/A   Overcast
11:56 AM 73.9 °F 62.1 °F 66% 30.08 in 10.0 mi South 16.1 mph 24.2 mph N/A   Mostly Cloudy
12:56 PM 77.0 °F 61.0 °F 58% 30.04 in 10.0 mi South 18.4 mph 24.2 mph N/A   Scattered Clouds
1:56 PM 79.0 °F 62.1 °F 56% 30.01 in 10.0 mi SSE 18.4 mph 26.5 mph N/A   Scattered Clouds
2:56 PM 75.9 °F 62.1 °F 62% 29.99 in 10.0 mi SSE 15.0 mph 21.9 mph N/A   Mostly Cloudy
3:56 PM 75.0 °F 62.1 °F 64% 29.99 in 10.0 mi SSE 13.8 mph - N/A   Mostly Cloudy
4:56 PM 75.0 °F 61.0 °F 62% 29.98 in 10.0 mi SSE 17.3 mph 23.0 mph N/A   Partly Cloudy
5:56 PM 72.0 °F 61.0 °F 68% 29.97 in 10.0 mi SSE 12.7 mph - N/A   Partly Cloudy
6:56 PM 71.1 °F 62.1 °F 73% 29.97 in 10.0 mi SSE 15.0 mph - N/A   Clear
7:56 PM 70.0 °F 62.1 °F 76% 29.98 in 10.0 mi South 16.1 mph - N/A   Clear
8:56 PM 69.1 °F 62.1 °F 78% 29.99 in 10.0 mi South 13.8 mph 24.2 mph N/A   Partly Cloudy
9:41 PM 69.8 °F 62.6 °F 78% 29.99 in 10.0 mi South 16.1 mph - N/A   Mostly Cloudy
9:56 PM 69.1 °F 62.1 °F 78% 29.99 in 10.0 mi South 15.0 mph - N/A   Mostly Cloudy
10:17 PM 69.8 °F 62.6 °F 78% 30.00 in 10.0 mi South 12.7 mph - N/A   Overcast
10:56 PM 69.1 °F 63.0 °F 81% 29.99 in 10.0 mi South 12.7 mph - N/A   Overcast
11:56 PM 69.1 °F 63.0 °F 81% 29.97 in 10.0 mi South 12.7 mph 21.9 mph N/A   Overcast